Marietta, GA

7:33 PM EST on February 24, 2017 (GMT -0500)
Dobbins Air Force Base

Weather History for KMGE - March, 2013

Change the Weather History Date:

Sunday, March 31, 2013

  Actual Average Record
Temperature  
Mean Temperature 62 °F -  
Max Temperature 70 °F 66 °F 78 °F (2012)
Min Temperature 55 °F 46 °F 30 °F (2003)
Degree Days  
Heating Degree Days 3    
Growing Degree Days 12 (Base 50)    
Moisture  
Dew Point 56 °F    
Average Humidity 90    
Maximum Humidity 100    
Minimum Humidity 56    
Precipitation  
Precipitation 0.06 in - - ()
Sea Level Pressure  
Sea Level Pressure 29.97 in    
Wind  
Wind Speed 5 mph (SSW)    
Max Wind Speed 16 mph    
Max Gust Speed 25 mph    
Visibility 8 miles    
Events Rain    
Averages and records for this station are not official NWS values.
T = Trace of Precipitation, MM = Missing Value Source: NWS Daily Summary

Daily Weather History Graph

Daily Weather History Graph

Search for Another Location

Airport or City:

Trip Planner

Search our weather history database for the weather conditions in past years. The results will help you decide how hot, cold, wet, or windy it might be!

Date:

Astronomy

Mar. 31, 2013 Rise Set
Actual Time 7:26 AM EDT 7:58 PM EDT
Civil Twilight 7:01 AM EDT 8:23 PM EDT
Nautical Twilight 6:31 AM EDT 8:52 PM EDT
Astronomical Twilight 6:01 AM EDT 9:23 PM EDT
Moon No Moon Rise 10:25 AM EDT (3/31)
Length of Visible Light 13h 22m
Length of Day
12h 31m
Waning Gibbous, 78% of the Moon is Illuminated
Mar 31
Waning Gibbous
Apr 3
Last Quarter
Apr 10
New
Apr 18
First Quarter
Apr 25
Full

Hourly Weather History & Observations

Time (EDT) Temp. Dew Point Humidity Pressure Visibility Wind Dir Wind Speed Gust Speed Precip Events Conditions
12:03 AM 55.4 °F 55.4 °F 100% 30.03 in 7.0 mi East 2.3 mph - N/A   Light Drizzle
12:08 AM 55.4 °F 55.4 °F 100% 30.03 in 6.0 mi ENE 1.2 mph - N/A   Light Drizzle
12:16 AM 55.4 °F 55.4 °F 100% 30.03 in 6.0 mi ENE 2.3 mph - N/A   Mostly Cloudy
12:31 AM 55.4 °F 55.4 °F 100% 30.03 in 7.0 mi East 2.3 mph - N/A   Overcast
12:33 AM 55.4 °F 55.4 °F 100% 30.03 in 7.0 mi East 4.6 mph - N/A   Light Drizzle
12:43 AM 55.4 °F 55.4 °F 100% 30.03 in 6.0 mi Calm Calm - N/A Rain Light Rain
12:48 AM 55.4 °F 55.4 °F 100% 30.03 in 4.0 mi Calm Calm - N/A Rain Light Rain
12:53 AM 55.4 °F 55.4 °F 100% 30.03 in 2.0 mi West 1.2 mph - N/A Rain Light Rain
12:58 AM 55.4 °F 55.4 °F 100% 30.04 in 2.0 mi South 1.2 mph - 0.02 in Rain Light Rain
1:03 AM 55.4 °F 55.4 °F 100% 30.03 in 4.0 mi SSE 1.2 mph - N/A Rain Light Rain
1:08 AM 55.4 °F 55.4 °F 100% 30.03 in 7.0 mi SSE 3.5 mph - N/A Rain Light Rain
1:23 AM 55.4 °F 55.4 °F 100% 30.02 in 9.0 mi SE 4.6 mph - N/A   Light Drizzle
1:26 AM 55.4 °F 55.4 °F 100% 30.02 in 9.0 mi SE 4.6 mph - N/A   Overcast
1:27 AM 55.4 °F 55.4 °F 100% 30.02 in 9.0 mi SE 3.5 mph - N/A   Light Drizzle
1:37 AM 55.4 °F 55.4 °F 100% 30.02 in 10.0 mi SE 3.5 mph - N/A   Light Drizzle
1:39 AM 55.4 °F 55.4 °F 100% 30.02 in 10.0 mi SE 3.5 mph - N/A   Mostly Cloudy
1:49 AM 55.4 °F 55.4 °F 100% 30.01 in 9.0 mi SE 3.5 mph - N/A   Mostly Cloudy
1:58 AM 55.9 °F 55.9 °F 100% 30.00 in 8.0 mi SE 3.5 mph - 0.01 in   Mostly Cloudy
2:18 AM 55.4 °F 55.4 °F 100% 30.00 in 6.0 mi SSE 3.5 mph - N/A   Mostly Cloudy
2:19 AM 55.4 °F 55.4 °F 100% 30.00 in 6.0 mi SSE 3.5 mph - N/A Rain Light Rain
2:23 AM 55.4 °F 55.4 °F 100% 30.00 in 6.0 mi SSE 3.5 mph - N/A Rain Light Rain
2:32 AM 55.4 °F 55.4 °F 100% 30.00 in 6.0 mi South 4.6 mph - N/A   Mostly Cloudy
2:35 AM 55.4 °F 55.4 °F 100% 30.00 in 6.0 mi South 4.6 mph - N/A   Light Drizzle
2:40 AM 55.4 °F 55.4 °F 100% 30.00 in 6.0 mi South 3.5 mph - N/A Rain Light Rain
2:50 AM 55.4 °F 55.4 °F 100% 30.00 in 5.0 mi South 4.6 mph - N/A Rain Light Rain
2:55 AM 55.4 °F 55.4 °F 100% 30.00 in 5.0 mi South 4.6 mph - N/A Rain Light Rain
2:58 AM 55.9 °F 55.9 °F 100% 29.99 in 5.0 mi South 4.6 mph - 0.01 in Rain Light Rain
3:14 AM 55.4 °F 55.4 °F 100% 29.99 in 4.0 mi South 5.8 mph - N/A   Overcast
3:34 AM 55.4 °F 55.4 °F 100% 29.99 in 5.0 mi Variable 5.8 mph - N/A   Overcast
3:44 AM 55.4 °F 55.4 °F 100% 29.98 in 7.0 mi South 4.6 mph - N/A   Overcast
3:49 AM 55.4 °F 55.4 °F 100% 29.98 in 7.0 mi South 5.8 mph - N/A   Overcast
3:58 AM 56.3 °F 55.9 °F 99% 29.97 in 7.0 mi South 4.6 mph - 0.00 in   Overcast
4:13 AM 57.2 °F 55.4 °F 94% 29.97 in 9.0 mi SSW 5.8 mph - N/A   Overcast
4:29 AM 57.2 °F 55.4 °F 94% 29.97 in 9.0 mi SSW 8.1 mph - N/A Rain Light Rain
4:41 AM 57.2 °F 55.4 °F 94% 29.96 in 10.0 mi SW 6.9 mph - N/A   Overcast
4:45 AM 57.2 °F 55.4 °F 94% 29.96 in 10.0 mi SW 6.9 mph - N/A   Light Drizzle
4:55 AM 57.2 °F 55.4 °F 94% 29.96 in 10.0 mi SW 9.2 mph - N/A   Overcast
4:57 AM 57.2 °F 55.4 °F 94% 29.96 in 10.0 mi SW 9.2 mph - N/A   Overcast
4:58 AM 57.2 °F 55.4 °F 94% 29.95 in 10.0 mi SW 8.1 mph - 0.00 in   Overcast
5:08 AM 57.2 °F 55.4 °F 94% 29.96 in 10.0 mi SW 6.9 mph - N/A   Overcast
5:13 AM 57.2 °F 55.4 °F 94% 29.96 in 10.0 mi SW 8.1 mph - N/A   Overcast
5:28 AM 57.2 °F 55.4 °F 94% 29.96 in 10.0 mi WSW 6.9 mph - N/A   Overcast
5:38 AM 57.2 °F 55.4 °F 94% 29.96 in 10.0 mi SW 6.9 mph - N/A   Overcast
5:43 AM 57.2 °F 55.4 °F 94% 29.96 in 10.0 mi WSW 5.8 mph - N/A   Overcast
5:48 AM 57.2 °F 55.4 °F 94% 29.96 in 10.0 mi SW 8.1 mph - N/A   Overcast
5:58 AM 56.8 °F 55.8 °F 96% 29.94 in 10.0 mi SW 5.8 mph - N/A   Overcast
6:03 AM 57.2 °F 55.4 °F 94% 29.95 in 10.0 mi SW 5.8 mph - N/A   Overcast
6:33 AM 57.2 °F 55.4 °F 94% 29.95 in 10.0 mi SW 8.1 mph - N/A   Overcast
6:38 AM 57.2 °F 55.4 °F 94% 29.96 in 10.0 mi SW 8.1 mph - N/A   Overcast
6:48 AM 57.2 °F 55.4 °F 94% 29.96 in 10.0 mi WSW 8.1 mph - N/A   Overcast
6:53 AM 57.2 °F 55.4 °F 94% 29.96 in 10.0 mi SW 8.1 mph - N/A   Overcast
6:58 AM 57.0 °F 55.9 °F 96% 29.95 in 10.0 mi SW 6.9 mph - N/A   Overcast
7:01 AM 57.2 °F 55.4 °F 94% 29.96 in 10.0 mi SW 5.8 mph - N/A   Overcast
7:46 AM 57.2 °F 55.4 °F 94% 29.98 in 5.0 mi WSW 4.6 mph - N/A   Overcast
7:58 AM 57.0 °F 56.1 °F 97% 29.97 in 10.0 mi WSW 5.8 mph - N/A   Overcast
8:58 AM 57.2 °F 57.2 °F 100% 29.99 in 5.0 mi WSW 5.8 mph - N/A   Overcast
9:08 AM 57.2 °F 57.2 °F 100% 29.99 in 5.0 mi WSW 5.8 mph - N/A   Overcast
9:23 AM 59.0 °F 57.2 °F 94% 29.99 in 7.0 mi WSW 6.9 mph - N/A   Overcast
9:58 AM 58.8 °F 56.7 °F 93% 30.00 in 7.0 mi West 8.1 mph - N/A   Overcast
10:58 AM 61.2 °F 56.5 °F 85% 29.99 in 7.0 mi West 9.2 mph - N/A   Overcast
11:17 AM 60.8 °F 55.4 °F 82% 29.99 in 7.0 mi West 9.2 mph - N/A   Overcast
11:27 AM 62.6 °F 55.4 °F 77% 29.98 in 10.0 mi SW 8.1 mph - N/A   Overcast
11:55 AM 62.6 °F 57.2 °F 82% 29.98 in 7.0 mi SSW 8.1 mph - N/A   Overcast
11:58 AM 62.8 °F 56.8 °F 81% 29.98 in 7.0 mi SSW 9.2 mph - N/A   Overcast
12:18 PM 64.4 °F 57.2 °F 77% 29.98 in 10.0 mi SW 8.1 mph - N/A   Overcast
12:38 PM 64.4 °F 57.2 °F 77% 29.98 in 10.0 mi SW 8.1 mph - N/A   Overcast
12:58 PM 64.4 °F 57.2 °F 77% 29.96 in 10.0 mi WSW 8.1 mph - N/A   Overcast
1:09 PM 64.4 °F 57.2 °F 77% 29.96 in 7.0 mi SW 5.8 mph - N/A Rain Light Rain
1:36 PM 62.6 °F 60.8 °F 94% 29.96 in 10.0 mi SSW 9.2 mph - N/A   Overcast
1:46 PM 64.4 °F 60.8 °F 88% 29.95 in 10.0 mi SW 8.1 mph - N/A   Overcast
1:58 PM 65.5 °F 59.5 °F 81% 29.94 in 10.0 mi SSW 10.4 mph 20.7 mph 0.01 in   Mostly Cloudy
2:13 PM 66.2 °F 57.2 °F 73% 29.94 in 10.0 mi SW 9.2 mph - N/A   Mostly Cloudy
2:48 PM 68.0 °F 55.4 °F 64% 29.93 in 10.0 mi SW 16.1 mph 21.9 mph N/A   Mostly Cloudy
2:58 PM 67.8 °F 55.8 °F 65% 29.92 in 10.0 mi WSW 12.7 mph 23.0 mph N/A   Mostly Cloudy
3:58 PM 69.3 °F 54.3 °F 59% 29.90 in 10.0 mi SW 16.1 mph 25.3 mph N/A   Mostly Cloudy
4:58 PM 69.3 °F 53.2 °F 57% 29.89 in 10.0 mi WSW 15.0 mph 20.7 mph N/A   Mostly Cloudy
5:58 PM 69.4 °F 53.2 °F 56% 29.88 in 10.0 mi WSW 9.2 mph 24.2 mph N/A   Mostly Cloudy
6:58 PM 68.0 °F 52.2 °F 57% 29.87 in 10.0 mi SW 10.4 mph - N/A   Mostly Cloudy
7:58 PM 65.5 °F 52.3 °F 62% 29.87 in 10.0 mi WSW 6.9 mph - N/A   Mostly Cloudy
8:58 PM 64.8 °F 52.9 °F 65% 29.88 in 10.0 mi WSW 4.6 mph - N/A   Overcast
9:58 PM 63.5 °F 53.4 °F 70% 29.89 in 10.0 mi West 5.8 mph - N/A   Overcast
10:46 PM 62.6 °F 53.6 °F 72% 29.91 in 10.0 mi SW 3.5 mph - N/A   Light Drizzle
10:58 PM 62.4 °F 55.0 °F 77% 29.90 in 10.0 mi SW 3.5 mph - 0.00 in Rain Light Rain
11:14 PM 60.8 °F 57.2 °F 88% 29.91 in 10.0 mi SW 3.5 mph - N/A   Mostly Cloudy
11:23 PM 60.8 °F 57.2 °F 88% 29.91 in 10.0 mi WSW 3.5 mph - N/A Rain Light Rain
11:49 PM 59.0 °F 57.2 °F 94% 29.91 in 10.0 mi SW 4.6 mph - N/A   Overcast
11:58 PM 59.7 °F 56.5 °F 89% 29.90 in 10.0 mi West 3.5 mph - 0.01 in   Overcast